| time (UTC) | temp F | wind direction | speed knots | gust knots | rain 1hr in | rain 24hr in | rain mn in | humidity % | barometer mb |
| 20260906173740 | 100 | 315 | 0.9 | 3.5 | 0.00 | 0.00 | 0.00 | 27 | 1010.5 |
| 20260906173010 | 100 | 270 | 0.9 | 3.5 | 0.00 | 0.00 | 0.00 | 30 | 1010.5 |
| 20260906172510 | 99 | 23 | 0.9 | 4.3 | 0.00 | 0.00 | 0.00 | 30 | 1010.5 |
| 20260906172010 | 99 | 225 | 0.9 | 4.3 | 0.00 | 0.00 | 0.00 | 30 | 1010.5 |
| 20260906171739 | 98 | 0 | 0.0 | 3.5 | 0.00 | 0.00 | 0.00 | 30 | 1010.5 |
| 20260906171009 | 97 | 315 | 0.9 | 3.5 | 0.00 | 0.00 | 0.00 | 31 | 1010.5 |
| 20260906170739 | 97 | 23 | 0.9 | 3.5 | 0.00 | 0.00 | 0.00 | 32 | 1010.5 |
| 20260906170240 | 97 | 203 | 0.9 | 3.5 | 0.00 | 0.00 | 0.00 | 31 | 1010.5 |
| 20260906165510 | 96 | 270 | 0.0 | 2.6 | 0.00 | 0.00 | 0.00 | 32 | 1010.5 |
| 20260906165009 | 96 | 338 | 0.0 | 3.5 | 0.00 | 0.00 | 0.00 | 35 | 1010.5 |
| 20260906164509 | 95 | 203 | 0.9 | 3.5 | 0.00 | 0.00 | 0.00 | 35 | 1010.5 |
| 20260906164009 | 94 | 158 | 0.0 | 2.6 | 0.00 | 0.00 | 0.00 | 35 | 1010.8 |
| 20260906163509 | 93 | 225 | 0.0 | 2.6 | 0.00 | 0.00 | 0.00 | 35 | 1010.8 |
| 20260906163008 | 92 | 23 | 0.0 | 1.7 | 0.00 | 0.00 | 0.00 | 37 | 1010.8 |
| 20260906162509 | 92 | 23 | 0.0 | 1.7 | 0.00 | 0.00 | 0.00 | 37 | 1010.8 |
| 20260906162008 | 91 | 180 | 0.0 | 1.7 | 0.00 | 0.00 | 0.00 | 37 | 1010.8 |
| 20260906161509 | 90 | 203 | 0.0 | 2.6 | 0.00 | 0.00 | 0.00 | 39 | 1010.8 |
| 20260906161009 | 90 | 315 | 0.0 | 2.6 | 0.00 | 0.00 | 0.00 | 40 | 1010.8 |
| 20260906160509 | 89 | 270 | 0.0 | 1.7 | 0.00 | 0.00 | 0.00 | 40 | 1010.8 |
| 20260906160009 | 89 | 23 | 0.0 | 1.7 | 0.00 | 0.00 | 0.00 | 40 | 1010.8 |
| 20260906155509 | 88 | 248 | 0.0 | 0.9 | 0.00 | 0.00 | 0.00 | 40 | 1010.8 |
| 20260906155009 | 88 | 203 | 0.0 | 0.9 | 0.00 | 0.00 | 0.00 | 40 | 1010.8 |
| 20260906154508 | 88 | 45 | 0.0 | 0.9 | 0.00 | 0.00 | 0.00 | 40 | 1010.8 |
| 20260906154007 | 88 | 158 | 0.0 | 0.0 | 0.00 | 0.00 | 0.00 | 43 | 1010.8 |
| 20260906153508 | 87 | 248 | 0.0 | 0.9 | 0.00 | 0.00 | 0.00 | 43 | 1010.8 |
| 20260906153239 | 87 | 0 | 0.0 | 1.7 | 0.00 | 0.00 | 0.00 | 45 | 1010.8 |
| 20260906152509 | 86 | 158 | 0.0 | 1.7 | 0.00 | 0.00 | 0.00 | 44 | 1010.8 |
| 20260906152009 | 86 | 180 | 0.0 | 0.0 | 0.00 | 0.00 | 0.00 | 45 | 1010.8 |
| 20260906151510 | 86 | 180 | 0.0 | 0.0 | 0.00 | 0.00 | 0.00 | 45 | 1010.8 |
| 20260906151009 | 85 | 180 | 0.0 | 0.0 | 0.00 | 0.00 | 0.00 | 46 | 1010.8 |
| 20260906150509 | 85 | 180 | 0.0 | 0.0 | 0.00 | 0.00 | 0.00 | 46 | 1010.8 |
| 20260906150239 | 85 | 203 | 0.0 | 0.0 | 0.00 | 0.00 | 0.00 | 45 | 1010.8 |
| 20260906150226 | 85 | 203 | 0.0 | 0.0 | 0.00 | 0.00 | 0.00 | 49 | 1010.5 |
| 20260906145724 | 84 | 203 | 0.0 | 0.0 | 0.00 | 0.00 | 0.00 | 48 | 1010.8 |
| 20260906144508 | 83 | 45 | 0.0 | 0.0 | 0.00 | 0.00 | 0.00 | 50 | 1010.8 |
| 20260906144239 | 83 | 270 | 0.0 | 0.0 | 0.00 | 0.00 | 0.00 | 51 | 1010.8 |
| 20260906143509 | 83 | 45 | 0.0 | 0.0 | 0.00 | 0.00 | 0.00 | 53 | 1010.5 |
| 20260906143009 | 83 | 45 | 0.0 | 0.0 | 0.00 | 0.00 | 0.00 | 54 | 1010.5 |
| 20260906142741 | 82 | 45 | 0.0 | 0.0 | 0.00 | 0.00 | 0.00 | 55 | 1010.5 |
| 20260906142009 | 82 | 45 | 0.0 | 0.0 | 0.00 | 0.00 | 0.00 | 55 | 1010.5 |
| 20260906141509 | 82 | 45 | 0.0 | 0.0 | 0.00 | 0.00 | 0.00 | 55 | 1010.5 |
| 20260906141008 | 82 | 90 | 0.0 | 0.0 | 0.00 | 0.00 | 0.00 | 54 | 1010.0 |
| 20260906140739 | 81 | 180 | 0.0 | 0.0 | 0.00 | 0.00 | 0.00 | 55 | 1010.0 |
| 20260906140007 | 81 | 180 | 0.0 | 0.0 | 0.00 | 0.00 | 0.00 | 56 | 1010.0 |
| 20260906135508 | 81 | 180 | 0.0 | 0.0 | 0.00 | 0.00 | 0.00 | 55 | 1010.0 |
| 20260906135240 | 81 | 180 | 0.0 | 0.0 | 0.00 | 0.00 | 0.00 | 55 | 1010.0 |
| 20260906134509 | 81 | 180 | 0.0 | 0.0 | 0.00 | 0.00 | 0.00 | 55 | 1010.0 |
| 20260906134009 | 81 | 180 | 0.0 | 0.0 | 0.00 | 0.00 | 0.00 | 55 | 1009.7 |
| 20260906133510 | 81 | 180 | 0.0 | 0.0 | 0.00 | 0.00 | 0.00 | 55 | 1009.7 |
| 20260906133009 | 81 | 180 | 0.0 | 0.0 | 0.00 | 0.00 | 0.00 | 55 | 1010.0 |
| 20260906132508 | 81 | 180 | 0.0 | 0.0 | 0.00 | 0.00 | 0.00 | 55 | 1010.0 |
| 20260906132008 | 81 | 180 | 0.0 | 0.0 | 0.00 | 0.00 | 0.00 | 54 | 1009.7 |
| 20260906131739 | 81 | 180 | 0.0 | 0.0 | 0.00 | 0.00 | 0.00 | 55 | 1009.7 |
| 20260906131008 | 81 | 180 | 0.0 | 0.0 | 0.00 | 0.00 | 0.00 | 54 | 1009.7 |
| 20260906130509 | 81 | 180 | 0.0 | 0.0 | 0.00 | 0.00 | 0.00 | 55 | 1009.3 |
| 20260906130239 | 81 | 180 | 0.0 | 0.0 | 0.00 | 0.00 | 0.00 | 54 | 1009.3 |
| 20260906125509 | 81 | 180 | 0.0 | 0.0 | 0.00 | 0.00 | 0.00 | 54 | 1009.3 |
| 20260906125009 | 81 | 180 | 0.0 | 0.0 | 0.00 | 0.00 | 0.00 | 54 | 1009.7 |
| 20260906124509 | 81 | 180 | 0.0 | 0.0 | 0.00 | 0.00 | 0.00 | 54 | 1009.3 |
| 20260906124008 | 81 | 180 | 0.0 | 0.0 | 0.00 | 0.00 | 0.00 | 54 | 1009.0 |
| 20260906123508 | 81 | 180 | 0.0 | 0.0 | 0.00 | 0.00 | 0.00 | 54 | 1009.3 |
| 20260906123239 | 81 | 180 | 0.0 | 0.0 | 0.00 | 0.00 | 0.00 | 53 | 1009.3 |
| 20260906122508 | 81 | 180 | 0.0 | 0.0 | 0.00 | 0.00 | 0.00 | 53 | 1009.0 |
| 20260906122008 | 81 | 180 | 0.0 | 0.0 | 0.00 | 0.00 | 0.00 | 51 | 1009.3 |
| 20260906121509 | 82 | 180 | 0.0 | 0.0 | 0.00 | 0.00 | 0.00 | 53 | 1009.3 |
| 20260906121009 | 82 | 180 | 0.0 | 0.0 | 0.00 | 0.00 | 0.00 | 51 | 1009.3 |
| 20260906120509 | 82 | 180 | 0.0 | 0.0 | 0.00 | 0.00 | 0.00 | 53 | 1009.3 |
| 20260906120009 | 82 | 180 | 0.0 | 0.0 | 0.00 | 0.00 | 0.00 | 51 | 1009.0 |
| 20260906115508 | 82 | 180 | 0.0 | 0.0 | 0.00 | 0.00 | 0.00 | 51 | 1009.3 |
| 20260906115008 | 82 | 180 | 0.0 | 0.0 | 0.00 | 0.00 | 0.00 | 50 | 1009.0 |
| 20260906114508 | 82 | 180 | 0.0 | 0.0 | 0.00 | 0.00 | 0.00 | 51 | 1009.3 |
| 20260906114007 | 82 | 180 | 0.0 | 0.0 | 0.00 | 0.00 | 0.00 | 50 | 1009.3 |
| 20260906113739 | 82 | 180 | 0.0 | 0.0 | 0.00 | 0.00 | 0.00 | 50 | 1009.3 |
| 20260906113009 | 83 | 180 | 0.0 | 0.0 | 0.00 | 0.00 | 0.00 | 51 | 1009.0 |
| 20260906112509 | 83 | 180 | 0.0 | 0.0 | 0.00 | 0.00 | 0.00 | 50 | 1009.0 |
| 20260906112009 | 83 | 180 | 0.0 | 0.0 | 0.00 | 0.00 | 0.00 | 50 | 1009.3 |
| 20260906111509 | 83 | 180 | 0.0 | 0.0 | 0.00 | 0.00 | 0.00 | 50 | 1009.0 |
| 20260906111009 | 83 | 180 | 0.0 | 0.0 | 0.00 | 0.00 | 0.00 | 51 | 1009.0 |
| 20260906110509 | 83 | 180 | 0.0 | 0.0 | 0.00 | 0.00 | 0.00 | 50 | 1009.0 |
| 20260906110239 | 83 | 180 | 0.0 | 0.0 | 0.00 | 0.00 | 0.00 | 50 | 1009.0 |
| 20260906105738 | 83 | 180 | 0.0 | 0.0 | 0.00 | 0.00 | 0.00 | 50 | 1009.3 |
| 20260906105009 | 83 | 180 | 0.0 | 0.0 | 0.00 | 0.00 | 0.00 | 50 | 1009.3 |
| 20260906104509 | 83 | 180 | 0.0 | 0.0 | 0.00 | 0.00 | 0.00 | 50 | 1009.0 |
| 20260906104008 | 83 | 180 | 0.0 | 0.0 | 0.00 | 0.00 | 0.00 | 50 | 1009.3 |
| 20260906103740 | 83 | 180 | 0.0 | 0.0 | 0.00 | 0.00 | 0.00 | 49 | 1009.0 |
| 20260906103009 | 83 | 180 | 0.0 | 0.0 | 0.00 | 0.00 | 0.00 | 50 | 1009.0 |
| 20260906102740 | 83 | 180 | 0.0 | 0.0 | 0.00 | 0.00 | 0.00 | 50 | 1009.0 |
| 20260906102009 | 83 | 180 | 0.0 | 0.0 | 0.00 | 0.00 | 0.00 | 48 | 1009.0 |
| 20260906101508 | 84 | 180 | 0.0 | 0.0 | 0.00 | 0.00 | 0.00 | 49 | 1009.0 |
| 20260906101007 | 84 | 180 | 0.0 | 0.0 | 0.00 | 0.00 | 0.00 | 48 | 1009.0 |
| 20260906100508 | 84 | 180 | 0.0 | 0.0 | 0.00 | 0.00 | 0.00 | 49 | 1009.3 |
| 20260906100240 | 84 | 180 | 0.0 | 0.0 | 0.00 | 0.00 | 0.00 | 49 | 1009.3 |
| 20260906095509 | 84 | 180 | 0.0 | 0.0 | 0.00 | 0.00 | 0.00 | 49 | 1009.0 |
| 20260906095009 | 84 | 180 | 0.0 | 0.0 | 0.00 | 0.00 | 0.00 | 49 | 1009.0 |
| 20260906094509 | 84 | 180 | 0.0 | 0.0 | 0.00 | 0.00 | 0.00 | 48 | 1009.0 |
| 20260906094013 | 84 | 180 | 0.0 | 0.0 | 0.00 | 0.00 | 0.00 | 46 | 1009.0 |
| 20260906094009 | 84 | 180 | 0.0 | 0.0 | 0.00 | 0.00 | 0.00 | 46 | 1009.0 |
| 20260906093008 | 84 | 180 | 0.0 | 0.0 | 0.00 | 0.00 | 0.00 | 46 | 1009.3 |
| 20260906092739 | 84 | 180 | 0.0 | 0.0 | 0.00 | 0.00 | 0.00 | 46 | 1009.0 |
| 20260906092239 | 85 | 180 | 0.0 | 0.0 | 0.00 | 0.00 | 0.00 | 45 | 1009.0 |
| 20260906091509 | 85 | 203 | 0.0 | 0.0 | 0.00 | 0.00 | 0.00 | 46 | 1009.0 |
| 20260906091008 | 85 | 45 | 0.0 | 0.0 | 0.00 | 0.00 | 0.00 | 46 | 1009.0 |
| 20260906090509 | 85 | 45 | 0.0 | 0.0 | 0.00 | 0.00 | 0.00 | 46 | 1009.0 |
| 20260906090009 | 85 | 45 | 0.0 | 0.9 | 0.00 | 0.00 | 0.00 | 45 | 1009.0 |
| 20260906085509 | 85 | 45 | 0.0 | 0.9 | 0.00 | 0.00 | 0.00 | 45 | 1009.0 |
| 20260906085009 | 85 | 45 | 0.0 | 0.9 | 0.00 | 0.00 | 0.00 | 45 | 1009.0 |
| 20260906084739 | 85 | 23 | 0.0 | 0.0 | 0.00 | 0.00 | 0.00 | 43 | 1009.0 |
| 20260906084008 | 85 | 338 | 0.0 | 0.0 | 0.00 | 0.00 | 0.00 | 44 | 1009.0 |
| 20260906083738 | 85 | 338 | 0.0 | 0.0 | 0.00 | 0.00 | 0.00 | 45 | 1009.3 |
| 20260906083007 | 86 | 338 | 0.0 | 0.0 | 0.00 | 0.00 | 0.00 | 45 | 1009.0 |
| 20260906082509 | 86 | 338 | 0.0 | 0.0 | 0.00 | 0.00 | 0.00 | 45 | 1009.0 |
| 20260906082009 | 86 | 338 | 0.0 | 0.0 | 0.00 | 0.00 | 0.00 | 43 | 1009.3 |
| 20260906081509 | 86 | 338 | 0.0 | 0.0 | 0.00 | 0.00 | 0.00 | 45 | 1009.3 |
| 20260906081008 | 86 | 338 | 0.0 | 0.0 | 0.00 | 0.00 | 0.00 | 45 | 1009.3 |
| 20260906080509 | 86 | 338 | 0.0 | 0.0 | 0.00 | 0.00 | 0.00 | 44 | 1009.3 |
| 20260906080008 | 86 | 338 | 0.0 | 0.0 | 0.00 | 0.00 | 0.00 | 44 | 1009.3 |
| 20260906075509 | 86 | 338 | 0.0 | 0.0 | 0.00 | 0.00 | 0.00 | 43 | 1009.3 |
| 20260906074950 | 86 | 0 | 0.0 | 0.0 | 0.00 | 0.00 | 0.00 | 43 | 1009.3 |
| 20260906074721 | 86 | 23 | 0.0 | 0.0 | 0.00 | 0.00 | 0.00 | 41 | 1009.0 |
| 20260906073951 | 87 | 23 | 0.0 | 0.0 | 0.00 | 0.00 | 0.00 | 41 | 1009.3 |
| 20260906073450 | 87 | 23 | 0.0 | 0.0 | 0.00 | 0.00 | 0.00 | 40 | 1009.3 |
| 20260906072950 | 87 | 23 | 0.0 | 0.0 | 0.00 | 0.00 | 0.00 | 43 | 1009.7 |
| 20260906072450 | 87 | 23 | 0.0 | 0.0 | 0.00 | 0.00 | 0.00 | 44 | 1009.7 |
| 20260906071950 | 87 | 23 | 0.0 | 0.0 | 0.00 | 0.00 | 0.00 | 43 | 1009.7 |
| 20260906071448 | 87 | 315 | 0.0 | 0.0 | 0.00 | 0.00 | 0.00 | 43 | 1009.3 |
| 20260906071220 | 87 | 45 | 0.0 | 0.0 | 0.00 | 0.00 | 0.00 | 43 | 1009.3 |
| 20260906070449 | 87 | 45 | 0.0 | 0.0 | 0.00 | 0.00 | 0.00 | 43 | 1009.3 |
| 20260906065949 | 88 | 45 | 0.0 | 0.0 | 0.00 | 0.00 | 0.00 | 41 | 1009.3 |
| 20260906065450 | 88 | 45 | 0.0 | 0.0 | 0.00 | 0.00 | 0.00 | 41 | 1009.3 |
| 20260906064950 | 88 | 45 | 0.0 | 0.0 | 0.00 | 0.00 | 0.00 | 41 | 1009.3 |
| 20260906064451 | 88 | 338 | 0.0 | 0.0 | 0.00 | 0.00 | 0.00 | 40 | 1009.7 |
| 20260906064221 | 88 | 338 | 0.0 | 0.0 | 0.00 | 0.00 | 0.00 | 41 | 1009.7 |
| 20260906063450 | 88 | 23 | 0.0 | 0.0 | 0.00 | 0.00 | 0.00 | 40 | 1009.7 |
| 20260906062948 | 88 | 23 | 0.0 | 0.0 | 0.00 | 0.00 | 0.00 | 40 | 1009.7 |
| 20260906062449 | 89 | 338 | 0.0 | 0.0 | 0.00 | 0.00 | 0.00 | 40 | 1009.7 |
| 20260906061949 | 89 | 315 | 0.0 | 0.0 | 0.00 | 0.00 | 0.00 | 39 | 1009.7 |
| 20260906061449 | 89 | 270 | 0.0 | 0.0 | 0.00 | 0.00 | 0.00 | 40 | 1009.7 |
| 20260906061221 | 89 | 270 | 0.0 | 0.0 | 0.00 | 0.00 | 0.00 | 40 | 1009.7 |
| 20260906060450 | 89 | 270 | 0.0 | 0.0 | 0.00 | 0.00 | 0.00 | 40 | 1009.7 |
| 20260906055950 | 89 | 23 | 0.0 | 0.0 | 0.00 | 0.00 | 0.00 | 39 | 1009.7 |
| 20260906055450 | 89 | 23 | 0.0 | 0.0 | 0.00 | 0.00 | 0.00 | 39 | 1009.7 |
| 20260906054950 | 90 | 45 | 0.0 | 0.0 | 0.00 | 0.00 | 0.00 | 37 | 1009.7 |
| 20260906054451 | 90 | 45 | 0.0 | 0.0 | 0.00 | 0.00 | 0.00 | 39 | 1009.7 |
| 20260906053950 | 90 | 23 | 0.0 | 0.0 | 0.00 | 0.00 | 0.00 | 39 | 1009.7 |
| 20260906053720 | 90 | 338 | 0.0 | 0.0 | 0.00 | 0.00 | 0.00 | 37 | 1009.3 |
| 20260906052949 | 90 | 338 | 0.0 | 0.0 | 0.00 | 0.00 | 0.00 | 37 | 1009.7 |
| 20260906052719 | 90 | 338 | 0.0 | 0.0 | 0.00 | 0.00 | 0.00 | 37 | 1009.3 |
| 20260906051950 | 91 | 0 | 0.0 | 0.0 | 0.00 | 0.00 | 0.00 | 37 | 1009.7 |
| 20260906051451 | 91 | 45 | 0.0 | 0.0 | 0.00 | 0.00 | 0.00 | 37 | 1009.7 |
| 20260906050950 | 91 | 45 | 0.0 | 0.0 | 0.00 | 0.00 | 0.00 | 37 | 1009.7 |
| 20260906050450 | 91 | 45 | 0.0 | 0.0 | 0.00 | 0.00 | 0.00 | 35 | 1009.7 |
| 20260906045950 | 91 | 45 | 0.0 | 1.7 | 0.00 | 0.00 | 0.00 | 35 | 1009.7 |
| 20260906045451 | 91 | 0 | 0.0 | 1.7 | 0.00 | 0.00 | 0.00 | 35 | 1009.7 |
| 20260906044949 | 92 | 315 | 0.0 | 0.9 | 0.00 | 0.00 | 0.00 | 35 | 1009.7 |
| 20260906044449 | 92 | 315 | 0.0 | 0.0 | 0.00 | 0.00 | 0.00 | 35 | 1009.7 |
| 20260906043949 | 92 | 315 | 0.0 | 0.0 | 0.00 | 0.00 | 0.00 | 35 | 1009.3 |
| 20260906043450 | 92 | 315 | 0.0 | 0.0 | 0.00 | 0.00 | 0.00 | 34 | 1010.0 |
| 20260906042950 | 92 | 315 | 0.0 | 0.9 | 0.00 | 0.00 | 0.00 | 34 | 1009.7 |
| 20260906042450 | 92 | 315 | 0.0 | 1.7 | 0.00 | 0.00 | 0.00 | 32 | 1009.7 |
| 20260906041950 | 92 | 293 | 0.0 | 2.6 | 0.00 | 0.00 | 0.00 | 32 | 1009.7 |
| 20260906041454 | 93 | 338 | 0.0 | 3.5 | 0.00 | 0.00 | 0.00 | 32 | 1009.7 |
| 20260906041450 | 93 | 23 | 0.0 | 2.6 | 0.00 | 0.00 | 0.00 | 32 | 1009.7 |
| 20260906041207 | 93 | 338 | 0.0 | 3.5 | 0.00 | 0.00 | 0.00 | 32 | 1010.0 |
| 20260906035948 | 93 | 0 | 0.0 | 3.5 | 0.00 | 0.00 | 0.00 | 32 | 1010.0 |
| 20260906035449 | 93 | 45 | 0.0 | 3.5 | 0.00 | 0.00 | 0.00 | 32 | 1009.7 |
| 20260906034949 | 93 | 315 | 0.0 | 4.3 | 0.00 | 0.00 | 0.00 | 32 | 1009.7 |
| 20260906034450 | 93 | 293 | 0.9 | 4.3 | 0.00 | 0.00 | 0.00 | 31 | 1009.7 |
| 20260906033950 | 93 | 338 | 0.9 | 2.6 | 0.00 | 0.00 | 0.00 | 31 | 1009.7 |
| 20260906033450 | 94 | 23 | 0.9 | 4.3 | 0.00 | 0.00 | 0.00 | 30 | 1009.3 |
| 20260906032950 | 94 | 338 | 0.9 | 4.3 | 0.00 | 0.00 | 0.00 | 31 | 1009.3 |
| 20260906032724 | 94 | 338 | 0.9 | 6.1 | 0.00 | 0.00 | 0.00 | 30 | 1009.0 |
| 20260906032450 | 94 | 338 | 0.9 | 6.1 | 0.00 | 0.00 | 0.00 | 30 | 1009.3 |
| 20260906031450 | 94 | 23 | 0.9 | 6.1 | 0.00 | 0.00 | 0.00 | 30 | 1009.0 |
| 20260906030949 | 94 | 338 | 0.9 | 5.2 | 0.00 | 0.00 | 0.00 | 30 | 1009.0 |
| 20260906030449 | 94 | 0 | 0.9 | 4.3 | 0.00 | 0.00 | 0.00 | 30 | 1009.0 |
| 20260906025949 | 94 | 45 | 0.9 | 5.2 | 0.00 | 0.00 | 0.00 | 30 | 1009.0 |
| 20260906025450 | 95 | 45 | 0.9 | 5.2 | 0.00 | 0.00 | 0.00 | 30 | 1009.0 |
| 20260906024950 | 95 | 203 | 0.9 | 4.3 | 0.00 | 0.00 | 0.00 | 30 | 1009.0 |
| 20260906024449 | 95 | 23 | 0.9 | 5.2 | 0.00 | 0.00 | 0.00 | 30 | 1009.0 |
| 20260906023950 | 95 | 0 | 0.9 | 5.2 | 0.00 | 0.00 | 0.00 | 29 | 1009.0 |
| 20260906023448 | 95 | 270 | 0.9 | 4.3 | 0.00 | 0.00 | 0.00 | 30 | 1009.0 |
| 20260906022950 | 95 | 338 | 0.9 | 4.3 | 0.00 | 0.00 | 0.00 | 30 | 1008.7 |
| 20260906022449 | 96 | 338 | 0.9 | 4.3 | 0.00 | 0.00 | 0.00 | 30 | 1009.0 |
| 20260906021948 | 96 | 315 | 0.9 | 4.3 | 0.00 | 0.00 | 0.00 | 30 | 1008.7 |
| 20260906021449 | 96 | 270 | 0.9 | 6.1 | 0.00 | 0.00 | 0.00 | 29 | 1008.7 |
| 20260906020950 | 96 | 270 | 0.9 | 6.1 | 0.00 | 0.00 | 0.00 | 30 | 1008.7 |
| 20260906020449 | 96 | 270 | 0.9 | 6.1 | 0.00 | 0.00 | 0.00 | 27 | 1008.7 |
| 20260906015948 | 97 | 270 | 0.9 | 6.1 | 0.00 | 0.00 | 0.00 | 27 | 1008.7 |
| 20260906015449 | 97 | 45 | 0.9 | 5.2 | 0.00 | 0.00 | 0.00 | 27 | 1009.0 |
| 20260906014948 | 97 | 270 | 0.9 | 6.1 | 0.00 | 0.00 | 0.00 | 27 | 1009.0 |
| 20260906014447 | 97 | 270 | 0.9 | 6.1 | 0.00 | 0.00 | 0.00 | 27 | 1008.7 |
| 20260906013948 | 98 | 338 | 0.9 | 6.1 | 0.00 | 0.00 | 0.00 | 27 | 1009.0 |
| 20260906013718 | 98 | 45 | 0.9 | 6.1 | 0.00 | 0.00 | 0.00 | 27 | 1008.7 |
| 20260906012949 | 98 | 270 | 0.9 | 7.0 | 0.00 | 0.00 | 0.00 | 27 | 1008.7 |
| 20260906012449 | 98 | 338 | 0.9 | 7.0 | 0.00 | 0.00 | 0.00 | 27 | 1008.7 |
| 20260906011949 | 99 | 68 | 0.9 | 7.0 | 0.00 | 0.00 | 0.00 | 27 | 1008.7 |
| 20260906011449 | 99 | 293 | 1.7 | 7.8 | 0.00 | 0.00 | 0.00 | 27 | 1008.7 |
| 20260906010948 | 99 | 315 | 1.7 | 7.8 | 0.00 | 0.00 | 0.00 | 27 | 1008.7 |
| 20260906010448 | 100 | 338 | 0.9 | 7.0 | 0.00 | 0.00 | 0.00 | 25 | 1008.7 |
| 20260906005947 | 100 | 0 | 0.9 | 8.7 | 0.00 | 0.00 | 0.00 | 25 | 1008.7 |
| 20260906005447 | 100 | 338 | 1.7 | 8.7 | 0.00 | 0.00 | 0.00 | 25 | 1008.7 |
| 20260906004947 | 101 | 270 | 1.7 | 7.0 | 0.00 | 0.00 | 0.00 | 25 | 1008.7 |
| 20260906004448 | 101 | 270 | 0.9 | 7.0 | 0.00 | 0.00 | 0.00 | 25 | 1008.7 |
| 20260906003948 | 101 | 338 | 1.7 | 7.0 | 0.00 | 0.00 | 0.00 | 25 | 1008.7 |
| 20260906003719 | 101 | 338 | 1.7 | 7.8 | 0.00 | 0.00 | 0.00 | 25 | 1008.7 |
| 20260906002948 | 102 | 0 | 1.7 | 7.8 | 0.00 | 0.00 | 0.00 | 25 | 1008.7 |
| 20260906002719 | 102 | 0 | 1.7 | 7.8 | 0.00 | 0.00 | 0.00 | 25 | 1008.7 |
| 20260906001947 | 102 | 338 | 1.7 | 7.8 | 0.00 | 0.00 | 0.00 | 25 | 1008.7 |
| 20260906001447 | 102 | 270 | 0.9 | 7.0 | 0.00 | 0.00 | 0.00 | 25 | 1008.7 |
| 20260906000946 | 102 | 293 | 1.7 | 8.7 | 0.00 | 0.00 | 0.00 | 25 | 1008.3 |
| 20260906000448 | 103 | 0 | 1.7 | 8.7 | 0.00 | 0.00 | 0.00 | 25 | 1008.3 |
| 20260906000221 | 103 | 23 | 1.7 | 7.0 | 0.00 | 0.00 | 0.00 | 25 | 1008.3 |
| 20260905235718 | 103 | 270 | 1.7 | 7.0 | 0.00 | 0.00 | 0.00 | 25 | 1008.3 |
| 20260905235218 | 103 | 23 | 1.7 | 6.1 | 0.00 | 0.00 | 0.00 | 25 | 1008.7 |
| 20260905234447 | 103 | 338 | 0.9 | 7.0 | 0.00 | 0.00 | 0.00 | 25 | 1008.7 |
| 20260905233947 | 104 | 248 | 0.9 | 7.0 | 0.00 | 0.00 | 0.00 | 25 | 1008.7 |
| 20260905233717 | 104 | 248 | 0.9 | 7.0 | 0.00 | 0.00 | 0.00 | 25 | 1008.7 |
| 20260905232946 | 104 | 113 | 1.7 | 7.0 | 0.00 | 0.00 | 0.00 | 25 | 1008.7 |
| 20260905232446 | 104 | 338 | 0.9 | 7.0 | 0.00 | 0.00 | 0.00 | 27 | 1008.7 |
| 20260905231947 | 104 | 90 | 1.7 | 7.0 | 0.00 | 0.00 | 0.00 | 27 | 1008.7 |
| 20260905231447 | 104 | 338 | 0.9 | 7.0 | 0.00 | 0.00 | 0.00 | 27 | 1008.7 |
| 20260905230947 | 104 | 338 | 0.9 | 7.0 | 0.00 | 0.00 | 0.00 | 27 | 1008.7 |
| 20260905230447 | 104 | 0 | 1.7 | 7.0 | 0.00 | 0.00 | 0.00 | 27 | 1008.3 |
| 20260905225947 | 104 | 338 | 1.7 | 7.0 | 0.00 | 0.00 | 0.00 | 27 | 1008.7 |
| 20260905225447 | 104 | 270 | 1.7 | 7.0 | 0.00 | 0.00 | 0.00 | 27 | 1008.3 |
| 20260905224946 | 104 | 248 | 1.7 | 7.0 | 0.00 | 0.00 | 0.00 | 27 | 1008.7 |
| 20260905224446 | 104 | 0 | 0.9 | 4.3 | 0.00 | 0.00 | 0.00 | 29 | 1008.7 |
| 20260905223946 | 104 | 338 | 0.9 | 4.3 | 0.00 | 0.00 | 0.00 | 29 | 1008.7 |
| 20260905223445 | 104 | 45 | 0.9 | 5.2 | 0.00 | 0.00 | 0.00 | 29 | 1008.7 |
| 20260905223217 | 103 | 23 | 0.9 | 5.2 | 0.00 | 0.00 | 0.00 | 29 | 1008.7 |
| 20260905222446 | 103 | 0 | 0.9 | 7.0 | 0.00 | 0.00 | 0.00 | 29 | 1008.7 |
| 20260905221946 | 103 | 338 | 0.9 | 7.0 | 0.00 | 0.00 | 0.00 | 29 | 1009.0 |
| 20260905221446 | 103 | 23 | 0.9 | 4.3 | 0.00 | 0.00 | 0.00 | 27 | 1009.0 |
| 20260905220947 | 103 | 270 | 0.9 | 5.2 | 0.00 | 0.00 | 0.00 | 29 | 1009.0 |
| 20260905220445 | 103 | 45 | 0.9 | 6.1 | 0.00 | 0.00 | 0.00 | 29 | 1009.3 |
| 20260905215944 | 103 | 180 | 0.9 | 6.1 | 0.00 | 0.00 | 0.00 | 27 | 1009.0 |
| 20260905215445 | 103 | 270 | 1.7 | 6.1 | 0.00 | 0.00 | 0.00 | 29 | 1009.0 |
| 20260905214945 | 103 | 293 | 0.9 | 6.1 | 0.00 | 0.00 | 0.00 | 29 | 1009.3 |
| 20260905214446 | 103 | 270 | 0.0 | 4.3 | 0.00 | 0.00 | 0.00 | 30 | 1009.3 |
| 20260905213946 | 103 | 338 | 0.9 | 7.8 | 0.00 | 0.00 | 0.00 | 30 | 1009.3 |
| 20260905213446 | 103 | 338 | 0.9 | 7.8 | 0.00 | 0.00 | 0.00 | 30 | 1009.3 |
| 20260905212946 | 103 | 338 | 0.9 | 5.2 | 0.00 | 0.00 | 0.00 | 29 | 1009.7 |
| 20260905212446 | 103 | 23 | 0.9 | 7.0 | 0.00 | 0.00 | 0.00 | 30 | 1009.3 |
| 20260905211944 | 102 | 270 | 0.9 | 7.0 | 0.00 | 0.00 | 0.00 | 30 | 1009.7 |
| 20260905211444 | 102 | 270 | 0.9 | 6.1 | 0.00 | 0.00 | 0.00 | 30 | 1009.7 |
| 20260905210945 | 102 | 315 | 0.9 | 6.1 | 0.00 | 0.00 | 0.00 | 30 | 1009.7 |
| 20260905210444 | 102 | 270 | 0.9 | 5.2 | 0.00 | 0.00 | 0.00 | 29 | 1010.0 |
| 20260905205946 | 102 | 225 | 0.9 | 4.3 | 0.00 | 0.00 | 0.00 | 29 | 1010.0 |
| 20260905205446 | 102 | 270 | 0.0 | 5.2 | 0.00 | 0.00 | 0.00 | 30 | 1010.0 |
| 20260905205217 | 102 | 45 | 0.9 | 5.2 | 0.00 | 0.00 | 0.00 | 30 | 1010.5 |
| 20260905204445 | 101 | 315 | 0.9 | 5.2 | 0.00 | 0.00 | 0.00 | 30 | 1010.0 |
| 20260905203946 | 102 | 158 | 0.9 | 7.0 | 0.00 | 0.00 | 0.00 | 29 | 1010.5 |
| 20260905203444 | 102 | 293 | 0.9 | 7.0 | 0.00 | 0.00 | 0.00 | 29 | 1010.5 |
| 20260905202944 | 102 | 293 | 0.9 | 4.3 | 0.00 | 0.00 | 0.00 | 30 | 1010.5 |
| 20260905202714 | 102 | 0 | 0.9 | 5.2 | 0.00 | 0.00 | 0.00 | 30 | 1010.8 |
| 20260905201944 | 101 | 0 | 0.9 | 5.2 | 0.00 | 0.00 | 0.00 | 31 | 1010.8 |
| 20260905201445 | 101 | 45 | 0.0 | 3.5 | 0.00 | 0.00 | 0.00 | 31 | 1010.8 |
| 20260905200944 | 101 | 203 | 0.0 | 3.5 | 0.00 | 0.00 | 0.00 | 30 | 1010.8 |
| 20260905200445 | 101 | 203 | 0.9 | 4.3 | 0.00 | 0.00 | 0.00 | 30 | 1010.8 |
| 20260905200215 | 101 | 135 | 0.9 | 4.3 | 0.00 | 0.00 | 0.00 | 30 | 1010.8 |
| 20260905195445 | 101 | 68 | 0.9 | 3.5 | 0.00 | 0.00 | 0.00 | 30 | 1010.8 |
| 20260905195215 | 101 | 180 | 0.9 | 4.3 | 0.00 | 0.00 | 0.00 | 29 | 1011.1 |
| 20260905194444 | 101 | 158 | 0.9 | 4.3 | 0.00 | 0.00 | 0.00 | 29 | 1011.1 |
| 20260905193944 | 101 | 293 | 0.9 | 3.5 | 0.00 | 0.00 | 0.00 | 29 | 1011.1 |
| 20260905193444 | 101 | 270 | 0.9 | 5.2 | 0.00 | 0.00 | 0.00 | 29 | 1011.1 |
| 20260905192945 | 101 | 315 | 0.9 | 5.2 | 0.00 | 0.00 | 0.00 | 30 | 1011.5 |
| 20260905192445 | 101 | 68 | 0.9 | 4.3 | 0.00 | 0.00 | 0.00 | 30 | 1011.8 |
| 20260905191945 | 101 | 270 | 0.9 | 3.5 | 0.00 | 0.00 | 0.00 | 30 | 1011.5 |
| 20260905191444 | 101 | 338 | 0.9 | 3.5 | 0.00 | 0.00 | 0.00 | 30 | 1011.5 |
| 20260905190945 | 101 | 45 | 0.9 | 3.5 | 0.00 | 0.00 | 0.00 | 31 | 1011.5 |
| 20260905190444 | 100 | 90 | 0.0 | 3.5 | 0.00 | 0.00 | 0.00 | 31 | 1011.8 |
| 20260905185944 | 100 | 23 | 0.0 | 3.5 | 0.00 | 0.00 | 0.00 | 31 | 1011.8 |
| 20260905185444 | 100 | 45 | 0.0 | 2.6 | 0.00 | 0.00 | 0.00 | 32 | 1011.8 |
| 20260905184944 | 99 | 23 | 0.0 | 1.7 | 0.00 | 0.00 | 0.00 | 31 | 1011.8 |
| 20260905184444 | 99 | 45 | 0.0 | 4.3 | 0.00 | 0.00 | 0.00 | 31 | 1011.8 |
| 20260905183945 | 99 | 203 | 0.9 | 4.3 | 0.00 | 0.00 | 0.00 | 30 | 1012.1 |
| 20260905183447 | 99 | 180 | 0.0 | 3.5 | 0.00 | 0.00 | 0.00 | 30 | 1012.1 |
| 20260905182944 | 99 | 90 | 0.0 | 2.6 | 0.00 | 0.00 | 0.00 | 30 | 1012.1 |
| 20260905182449 | 99 | 315 | 0.0 | 1.7 | 0.00 | 0.00 | 0.00 | 31 | 1012.1 |
| 20260905181944 | 99 | 248 | 0.0 | 1.7 | 0.00 | 0.00 | 0.00 | 30 | 1012.5 |
| 20260905181715 | 99 | 225 | 0.0 | 2.6 | 0.00 | 0.00 | 0.00 | 30 | 1012.5 |
| 20260905180943 | 99 | 0 | 0.0 | 2.6 | 0.00 | 0.00 | 0.00 | 30 | 1012.1 |
| 20260905180444 | 100 | 338 | 0.0 | 2.6 | 0.00 | 0.00 | 0.00 | 30 | 1012.5 |
| 20260905175944 | 100 | 23 | 0.0 | 2.6 | 0.00 | 0.00 | 0.00 | 30 | 1012.5 |
| 20260905175444 | 100 | 270 | 0.0 | 0.9 | 0.00 | 0.00 | 0.00 | 31 | 1012.5 |
| 20260905174945 | 100 | 180 | 0.0 | 0.9 | 0.00 | 0.00 | 0.00 | 30 | 1012.5 |
| 20260905174444 | 100 | 45 | 0.0 | 2.6 | 0.00 | 0.00 | 0.00 | 31 | 1012.5 |